Scottsbluff, NE

3:02 AM MDT on September 22, 2019 (GMT -0600)
Heilig

Weather History for KBFF - July, 2019

Change the Weather History Date:

Thursday, July 25, 2019

  Actual Average Record
Temperature  
Mean Temperature 80 °F -  
Max Temperature 93 °F 88 °F 104 °F (1931)
Min Temperature 68 °F 59 °F 41 °F (1911)
Cooling Degree Days 16    
Growing Degree Days 30 (Base 50)    
Moisture  
Dew Point 60 °F    
Average Humidity 53    
Maximum Humidity 76    
Minimum Humidity 26    
Precipitation  
Precipitation 0.00 in - - ()
Sea Level Pressure  
Sea Level Pressure 29.89 in    
Wind  
Wind Speed 8 mph (NE)    
Max Wind Speed 14 mph    
Max Gust Speed -    
Visibility 10 miles    
Events      
Averages and records for this station are not official NWS values.
T = Trace of Precipitation, MM = Missing Value Source: NWS Daily Summary

Daily Weather History Graph

Daily Weather History Graph

Search for Another Location

Airport or City:

Astronomy

Jul. 25, 2019 Rise Set
Actual Time 5:41 AM MDT 8:20 PM MDT
Civil Twilight 5:09 AM MDT 8:52 PM MDT
Nautical Twilight 4:28 AM MDT 9:32 PM MDT
Astronomical Twilight 3:42 AM MDT 10:17 PM MDT
Moon 12:29 AM MDT (7/25) 2:01 PM MDT (7/25)
Length of Visible Light 15h 43m
Length of Day
14h 38m
Last Quarter, 43% of the Moon is Illuminated
Jul 25
Last Quarter
Jul 31
New
Aug 7
First Quarter
Aug 15
Full
Aug 23
Last Quarter

Hourly Weather History & Observations

Time (MDT) Temp. Heat Index Dew Point Humidity Pressure Visibility Wind Dir Wind Speed Gust Speed Precip Events Conditions
12:53 AM 72.0 °F - 62.1 °F 71% 29.86 in 10.0 mi SSE 8.1 mph - N/A   Partly Cloudy
1:53 AM 75.0 °F - 57.9 °F 55% 29.85 in 10.0 mi SW 10.4 mph - 0.00 in   Mostly Cloudy
2:53 AM 75.9 °F - 57.0 °F 52% 29.83 in 10.0 mi WSW 13.8 mph - 0.00 in   Overcast
3:53 AM 73.0 °F - 59.0 °F 61% 29.83 in 10.0 mi NW 6.9 mph - 0.00 in   Clear
4:53 AM 71.1 °F - 59.0 °F 66% 29.84 in 10.0 mi NW 8.1 mph - N/A   Clear
5:53 AM 69.1 °F - 59.0 °F 70% 29.88 in 10.0 mi NW 9.2 mph - N/A   Clear
6:53 AM 72.0 °F - 61.0 °F 68% 29.89 in 10.0 mi WNW 6.9 mph - N/A   Clear
7:53 AM 73.0 °F - 61.0 °F 66% 29.92 in 10.0 mi WNW 8.1 mph - N/A   Clear
8:53 AM 80.1 °F 81.7 °F 64.0 °F 58% 29.93 in 10.0 mi NW 10.4 mph - N/A   Clear
9:53 AM 82.0 °F 83.1 °F 63.0 °F 52% 29.93 in 10.0 mi WNW 9.2 mph - N/A   Clear
10:53 AM 86.0 °F 86.3 °F 62.1 °F 44% 29.93 in 10.0 mi North 8.1 mph - N/A   Clear
11:53 AM 89.1 °F 88.2 °F 59.0 °F 36% 29.93 in 10.0 mi NNE 5.8 mph - N/A   Clear
12:53 PM 89.1 °F 88.2 °F 59.0 °F 36% 29.92 in 10.0 mi Variable 3.5 mph - N/A   Clear
1:53 PM 91.0 °F 90.2 °F 59.0 °F 34% 29.90 in 10.0 mi North - - N/A   Clear
2:53 PM 90.0 °F 88.8 °F 57.9 °F 34% 29.89 in 10.0 mi Variable 6.9 mph - N/A   Clear
3:53 PM 91.0 °F 90.0 °F 57.9 °F 33% 29.88 in 10.0 mi SE 8.1 mph - N/A   Clear
4:53 PM 91.0 °F 89.7 °F 57.0 °F 32% 29.88 in 10.0 mi ESE 10.4 mph - N/A   Clear
5:53 PM 90.0 °F 90.0 °F 61.0 °F 38% 29.86 in 10.0 mi East 8.1 mph - N/A   Clear
6:53 PM 87.1 °F 88.3 °F 64.0 °F 46% 29.86 in 10.0 mi East 9.2 mph - N/A   Clear
7:53 PM 81.0 °F 82.5 °F 64.0 °F 56% 29.87 in 10.0 mi East 8.1 mph - N/A   Clear
8:53 PM 73.9 °F - 64.0 °F 71% 29.89 in 10.0 mi East 5.8 mph - N/A   Clear
9:53 PM 72.0 °F - 62.1 °F 71% 29.91 in 10.0 mi East 6.9 mph - N/A   Clear
10:53 PM 70.0 °F - 62.1 °F 76% 29.90 in 10.0 mi East 8.1 mph - N/A   Clear
11:53 PM 70.0 °F - 61.0 °F 73% 29.89 in 10.0 mi East 6.9 mph - N/A   Clear